Vorticity
8 5 5 5 6 7 8 8 9 9 10 11 13 13 11 8 6 7 7 6 7 7 7 6 6 7 7 7 8 8 9 8 9 9 9 9 9 8 8 8 8 8 10
6 5 5 5 7 7 7 8 8 8 9 9 10 11 13 14 11 9 8 8 7 7 7 7 7 6 6 6 7 7 7 7 8 8 9 9 9 9 9 8 9 8 8
6 5 5 6 7 8 7 7 7 8 8 8 9 9 10 12 15 13 11 10 9 7 7 8 8 7 7 7 7 7 7 7 7 7 8 8 8 8 9 9 9 9 9
5 5 6 7 7 6 6 7 8 8 8 8 8 9 9 10 11 13 12 11 12 11 9 8 9 9 8 8 8 8 8 8 8 8 8 7 7 7 8 8 8 8 8
5 6 7 6 6 6 7 8 9 10 10 9 9 9 9 9 9 10 11 10 10 11 12 11 10 10 10 10 9 10 9 9 9 8 8 8 8 8 7 7 7 8 8
6 7 6 7 7 7 7 8 8 8 9 10 9 9 10 10 9 10 10 10 10 9 9 8 8 8 7 8 8 8 9 9 9 9 9 8 8 9 9 8 8 7 6
7 6 7 7 7 8 8 8 9 9 8 9 9 10 9 9 9 9 9 9 7 7 8 8 8 7 8 8 7 7 8 9 9 9 9 9 8 9 9 9 9 8 8
6 7 7 8 8 8 9 9 10 9 9 9 9 9 7 8 8 8 5 6 7 7 6 8 8 7 7 7 7 7 6 6 6 7 7 7 7 6 7 7 8 8 8
6 8 8 7 6 7 7 8 8 8 9 9 9 9 12 8 6 8 10 10 11 10 10 9 9 9 9 9 8 7 8 7 7 6 7 7 7 6 6 6 7 7 7
7 6 6 7 8 9 9 9 9 8 8 9 10 11 11 10 9 8 6 7 8 7 7 7 7 7 7 7 8 8 8 8 8 7 7 7 7 6 6 6 5 5 6
8 7 7 8 8 9 10 10 11 11 11 10 9 7 6 6 7 8 7 5 5 8 7 7 7 7 7 8 8 8 9 9 10 11 11 10 10 10 10 10 10 10 10
7 7 6 7 9 11 12 12 11 9 8 7 6 6 7 8 8 9 9 7 12 5 9 11 10 8 7 7 7 7 7 7 8 8 7 8 9 9 8 8 8 8 8
7 6 6 7 9 10 10 10 8 8 7 7 8 8 9 8 9 8 9 10 9 10 9 10 10 12 11 10 9 8 8 8 8 7 7 6 5 5 6 6 6 7 7
5 5 7 10 12 11 9 8 7 7 7 7 7 7 6 6 6 6 6 6 8 7 8 9 8 9 9 9 11 10 9 8 8 7 7 6 6 6 5 6 6 5 5
7 8 8 9 8 7 7 7 7 7 7 7 6 8 8 8 8 9 9 9 10 12 8 10 10 10 9 9 8 8 10 10 10 10 10 10 10 9 8 8 7 6 6
9 9 9 8 7 7 8 8 8 7 7 7 7 6 7 7 7 7 6 6 6 6 7 7 6 6 7 6 5 6 7 9 9 10 10 10 10 10 10 9 9 8 7
8 7 6 6 6 7 7 7 7 7 6 2 2 7 7 6 12 12 6 7 8 10 10 12 11 10 8 9 10 10 11 8 9 11 11 11 11 11 11 10 10 9 9
7 7 6 6 6 6 6 6 1 2 12 17 17 9 10 13 12 13 11 10 11 11 10 9 13 16 19 19 16 14 12 11 11 10 11 11 11 10 9 10 10 11 11
8 7 7 6 6 6 6 -3 12 15 17 13 11 16 11 8 8 8 9 11 12 11 11 11 11 12 12 13 13 14 13 12 12 9 7 8 9 9 10 10 10 10 10
7 8 7 8 9 2 -0 12 13 13 11 13 11 9 6 6 8 10 11 13 12 11 10 9 9 10 9 10 9 10 8 8 9 8 9 9 8 9 11 13 15 13 13
8 8 8 4 1 8 13 12 16 17 12 8 6 5 6 8 12 12 12 11 10 9 9 9 9 7 7 9 10 10 10 11 8 11 12 12 14 16 18 19 19 17 15
9 5 4 7 11 11 16 20 10 8 6 4 3 5 9 12 12 11 11 10 9 10 9 10 8 9 10 8 9 10 12 13 16 12 18 20 20 19 23 22 18 15 14
6 9 11 10 12 20 12 6 4 2 1 3 6 9 12 12 11 9 9 8 9 9 10 7 8 8 8 10 11 13 12 9 12 13 16 19 21 20 17 14 15 14 13
8 8 8 14 19 9 5 2 1 2 3 6 11 13 12 12 12 9 9 9 9 9 8 7 7 7 9 11 13 13 13 9 9 11 13 14 12 12 15 15 15 22 11
6 8 11 12 6 3 1 -0 2 3 6 11 15 15 12 11 11 10 10 11 10 10 8 7 8 12 14 13 14 13 7 14 11 15 9 14 15 16 14 13 11 21 3
7 12 11 5 2 1 -1 2 6 12 14 16 16 14 12 10 10 10 10 10 8 7 7 8 9 13 13 14 14 13 14 13 13 14 9 15 10 14 13 14 10 25 27
Height
3150 3148 3145 3143 3140 3136 3133 3130 3127 3124 3121 3119 3117 3115 3113 3111 3110 3108 3106 3105 3104 3103 3103 3103 3102 3102 3101 3101 3101 3101 3100 3100 3100 3100 3100 3101 3102 3102 3103 3104 3105 3106 3107
3147 3144 3141 3139 3136 3133 3129 3126 3123 3120 3118 3115 3113 3111 3108 3107 3106 3104 3102 3100 3098 3098 3097 3097 3097 3097 3097 3096 3096 3095 3095 3095 3095 3095 3095 3096 3096 3097 3098 3098 3099 3101 3102
3143 3140 3137 3134 3132 3129 3126 3123 3120 3117 3114 3111 3109 3107 3104 3102 3101 3099 3098 3096 3094 3093 3092 3092 3092 3091 3090 3090 3090 3090 3090 3090 3089 3090 3091 3091 3092 3092 3092 3093 3094 3094 3095
3139 3136 3134 3131 3128 3125 3122 3119 3116 3113 3111 3108 3105 3103 3101 3098 3097 3095 3093 3091 3090 3089 3088 3086 3086 3086 3085 3084 3084 3085 3084 3084 3084 3084 3085 3085 3085 3086 3086 3087 3088 3089 3090
3135 3133 3130 3127 3124 3121 3119 3116 3113 3111 3108 3105 3102 3099 3097 3094 3093 3092 3090 3088 3087 3085 3084 3082 3081 3080 3080 3079 3078 3078 3078 3078 3078 3078 3078 3079 3079 3080 3080 3081 3082 3083 3083
3131 3129 3127 3124 3121 3118 3115 3112 3109 3106 3105 3103 3099 3097 3094 3091 3089 3088 3087 3085 3083 3082 3081 3079 3078 3076 3074 3074 3073 3073 3073 3073 3073 3073 3073 3073 3073 3074 3074 3075 3076 3077 3077
3128 3125 3123 3120 3117 3114 3111 3108 3105 3102 3098 3097 3096 3092 3090 3087 3086 3084 3082 3081 3080 3078 3076 3075 3073 3072 3071 3069 3068 3067 3066 3067 3067 3067 3067 3067 3067 3068 3068 3069 3070 3070 3070
3124 3121 3118 3115 3112 3108 3105 3102 3100 3098 3094 3092 3091 3089 3087 3085 3082 3080 3078 3077 3075 3074 3072 3070 3069 3068 3066 3065 3063 3062 3061 3061 3061 3061 3061 3061 3060 3061 3062 3063 3063 3063 3064
3118 3115 3112 3109 3106 3103 3100 3097 3094 3092 3089 3086 3085 3084 3081 3080 3078 3076 3074 3072 3070 3069 3067 3065 3064 3062 3060 3059 3058 3057 3056 3055 3054 3054 3054 3054 3055 3054 3054 3055 3056 3057 3057
3113 3110 3107 3105 3102 3099 3095 3092 3089 3086 3084 3081 3079 3077 3075 3073 3071 3071 3070 3067 3065 3063 3062 3060 3059 3057 3054 3052 3051 3050 3049 3049 3048 3048 3047 3047 3047 3047 3047 3047 3048 3049 3049
3108 3106 3103 3100 3096 3093 3090 3087 3084 3081 3079 3077 3074 3072 3069 3066 3064 3061 3061 3063 3061 3058 3055 3054 3052 3049 3047 3046 3044 3043 3042 3042 3041 3041 3040 3040 3039 3039 3039 3039 3039 3040 3041
3103 3100 3097 3094 3091 3088 3085 3082 3080 3077 3075 3073 3070 3067 3065 3062 3059 3055 3052 3052 3052 3053 3051 3048 3045 3043 3040 3039 3037 3036 3034 3033 3033 3033 3032 3031 3031 3031 3031 3031 3031 3032 3033
3097 3094 3091 3088 3085 3082 3080 3077 3075 3072 3070 3068 3065 3062 3059 3055 3053 3049 3046 3043 3041 3043 3042 3041 3038 3035 3032 3030 3028 3027 3026 3025 3025 3024 3023 3023 3022 3022 3022 3022 3023 3023 3024
3091 3088 3085 3082 3080 3077 3074 3072 3069 3067 3065 3062 3059 3056 3053 3049 3045 3042 3039 3034 3032 3033 3034 3031 3029 3027 3024 3021 3020 3017 3016 3014 3014 3013 3013 3013 3012 3012 3012 3012 3013 3014 3014
3085 3082 3079 3077 3074 3072 3069 3067 3064 3061 3058 3055 3052 3049 3046 3043 3039 3035 3031 3026 3021 3018 3021 3024 3020 3017 3014 3012 3011 3009 3007 3005 3004 3003 3002 3002 3002 3001 3001 3001 3002 3002 3003
3079 3076 3074 3071 3068 3065 3062 3060 3057 3055 3052 3049 3045 3041 3038 3035 3031 3027 3023 3020 3015 3008 3005 3014 3008 3006 3003 3001 2999 2997 2996 2994 2993 2991 2990 2990 2990 2990 2990 2990 2989 2990 2991
3073 3070 3068 3065 3062 3059 3056 3053 3050 3047 3044 3041 3037 3033 3029 3026 3023 3019 3015 3011 3007 3000 2993 3000 2998 2995 2992 2989 2988 2985 2984 2982 2981 2980 2979 2978 2977 2977 2977 2977 2977 2977 2978
3066 3064 3061 3058 3055 3052 3049 3046 3043 3040 3036 3032 3028 3024 3020 3016 3014 3010 3006 3002 2997 2993 2986 2980 2984 2984 2982 2979 2977 2974 2973 2970 2969 2967 2966 2965 2965 2965 2964 2963 2963 2963 2964
3059 3057 3055 3052 3049 3045 3042 3038 3034 3029 3026 3022 3019 3015 3011 3008 3004 3001 2997 2993 2988 2983 2979 2973 2969 2968 2969 2968 2967 2965 2963 2961 2958 2956 2954 2952 2950 2950 2950 2949 2948 2948 2948
3052 3050 3048 3045 3042 3038 3034 3029 3024 3019 3016 3013 3010 3007 3003 2999 2995 2990 2986 2982 2978 2974 2971 2966 2961 2956 2953 2954 2952 2951 2951 2949 2947 2945 2943 2940 2938 2936 2935 2933 2932 2931 2932
3045 3043 3041 3038 3034 3029 3024 3019 3014 3011 3008 3005 3001 2998 2994 2989 2984 2979 2975 2972 2968 2964 2961 2957 2952 2947 2943 2940 2937 2935 2932 2931 2931 2929 2927 2925 2923 2922 2920 2918 2917 2916 2915
3038 3035 3032 3028 3025 3020 3015 3010 3006 3002 2998 2995 2991 2988 2983 2978 2973 2969 2965 2961 2958 2953 2950 2946 2941 2937 2934 2930 2925 2920 2917 2914 2912 2916 2910 2909 2908 2904 2904 2904 2903 2901 2900
3030 3027 3024 3019 3015 3011 3007 3002 2997 2991 2987 2984 2980 2975 2972 2968 2964 2959 2956 2952 2949 2946 2941 2935 2930 2928 2923 2920 2914 2910 2906 2901 2898 2898 2895 2891 2896 2891 2893 2891 2891 2889 2887
3022 3018 3014 3010 3005 3002 2998 2993 2988 2981 2976 2972 2969 2964 2959 2957 2954 2948 2945 2942 2940 2938 2935 2929 2923 2918 2914 2909 2904 2899 2894 2890 2887 2888 2886 2877 2881 2879 2879 2879 2879 2877 2875
3013 3008 3004 3000 2996 2992 2988 2982 2977 2971 2964 2960 2956 2952 2948 2945 2942 2938 2933 2930 2927 2926 2922 2918 2913 2908 2903 2899 2894 2888 2885 2881 2877 2878 2875 2869 2870 2867 2866 2867 2867 2866 2864
3003 2998 2995 2991 2986 2980 2976 2970 2965 2958 2951 2947 2944 2941 2939 2934 2931 2928 2923 2919 2914 2912 2908 2905 2902 2897 2892 2887 2884 2879 2875 2870 2868 2864 2864 2861 2859 2857 2854 2855 2856 2855 2853